Temp
42 41 40 40 39 39 38 38 39 39 38 37 36 36 35 35 35 34 34 34 34 34 34 35 35 35 35 34 33 32 31 31 31 31 32 32 31 31 31 30 30 29 29 29 29 29 29 28 28 28 27 28 28 28 28 29 28 28 28 28 28 28 28 28 28 28 28 28 28
41 41 40 41 40 39 38 38 38 38 38 37 36 36 36 35 35 34 34 34 35 35 35 36 36 35 34 34 33 32 31 31 31 31 32 32 32 31 31 29 29 29 29 28 29 28 28 28 27 27 27 27 28 28 28 28 28 28 28 27 28 28 28 28 28 28 28 28 28
41 40 40 40 39 39 38 37 37 37 37 37 36 36 36 35 35 35 35 34 35 36 36 35 35 35 34 33 32 32 31 31 31 31 31 32 32 31 30 29 29 29 29 29 28 28 28 27 27 27 27 27 28 28 28 28 28 28 27 27 28 28 28 28 28 29 28 28 28
40 40 39 39 39 38 38 37 37 37 37 37 36 36 36 35 35 35 35 35 35 35 35 35 35 34 33 32 32 32 31 31 31 31 31 32 32 31 30 29 28 28 28 29 28 28 28 27 27 27 28 28 28 28 28 28 28 28 27 28 28 28 28 28 29 29 29 28 28
39 39 39 39 39 39 39 39 38 37 37 36 35 35 35 35 35 35 35 34 34 34 35 35 34 34 33 32 31 31 31 32 32 31 31 31 31 30 29 29 29 28 28 28 28 28 27 27 27 27 27 28 27 28 28 29 28 27 27 28 28 28 28 28 29 29 29 28 28
39 39 39 39 39 39 39 39 38 37 37 36 35 34 34 34 34 34 34 33 33 34 34 35 34 34 33 32 31 31 31 31 32 31 31 31 30 30 29 29 29 28 28 28 27 27 27 26 26 27 27 27 27 27 28 28 28 27 27 27 28 28 28 28 28 28 28 28 28
39 39 39 39 38 38 38 38 38 37 36 35 34 34 34 34 34 34 34 34 33 33 33 34 34 33 32 31 30 30 30 30 31 31 31 30 30 29 29 28 28 28 28 27 27 27 26 26 26 27 27 28 27 27 27 27 27 27 26 27 28 28 28 28 28 28 28 27 27
40 39 39 38 38 37 37 37 37 36 35 34 34 34 34 33 33 33 33 33 33 32 33 33 33 32 32 31 30 30 30 30 31 31 31 30 29 29 28 28 27 27 27 27 27 27 27 26 26 26 27 27 28 28 28 27 26 26 26 26 27 28 28 28 27 27 27 26 25
39 38 38 37 37 37 36 36 36 35 34 34 34 34 33 33 33 33 33 33 33 32 32 33 32 32 32 31 30 30 30 30 30 30 30 29 29 29 28 28 27 27 27 27 27 27 26 26 26 26 27 27 28 28 28 27 25 25 25 26 27 28 28 28 27 27 26 26 25
39 38 37 36 36 36 36 35 35 34 34 34 34 34 34 34 33 33 33 33 33 32 32 32 32 32 31 30 30 30 30 30 30 30 29 29 29 28 28 27 27 27 27 27 27 27 26 25 26 26 26 27 27 28 28 27 26 25 25 26 27 27 27 27 27 26 26 25 24
39 37 36 36 35 35 35 35 34 34 34 33 33 33 33 34 33 33 33 33 32 32 31 32 31 31 31 30 30 30 30 30 30 29 29 29 29 28 28 27 27 27 27 27 27 26 26 25 25 25 26 26 27 26 26 26 25 25 25 26 26 26 26 26 26 26 25 25 24
39 37 36 36 35 35 34 34 34 33 33 33 33 33 32 33 33 33 33 32 32 31 31 31 31 31 30 30 30 30 30 30 30 29 29 28 28 28 28 27 27 27 27 27 27 26 25 25 25 25 25 25 25 25 25 25 24 24 24 25 25 25 24 24 25 25 25 25 24
39 37 36 35 34 34 34 33 33 33 33 33 33 32 32 33 33 33 32 31 31 31 31 31 31 30 30 30 30 30 30 30 30 30 29 28 28 28 27 27 27 27 27 27 26 26 25 25 25 25 25 25 25 25 25 24 24 23 24 24 24 24 24 23 23 24 24 24 24
38 37 35 34 34 33 33 33 33 33 33 32 32 32 32 32 33 32 32 31 31 31 30 30 31 31 31 30 30 30 30 30 30 29 29 28 28 28 27 27 27 27 27 27 26 26 26 25 25 25 24 24 24 25 25 24 24 23 24 24 24 24 23 23 23 23 23 23 23
38 36 35 34 33 33 32 32 32 32 32 32 32 32 32 32 32 32 32 31 31 31 30 30 30 31 31 31 30 30 30 30 30 29 29 28 28 27 27 27 27 27 26 26 26 26 25 25 25 24 24 24 24 24 25 24 24 24 24 24 24 24 23 23 23 23 23 23 22
37 36 34 33 32 32 32 32 32 32 32 32 32 32 32 32 32 32 32 31 31 30 30 30 30 30 30 31 31 30 30 30 29 29 28 28 27 27 27 27 27 26 26 26 26 25 25 25 25 25 24 24 24 24 24 24 24 23 23 23 23 23 23 23 23 23 23 23 23
36 35 34 33 32 32 32 32 32 32 32 32 32 32 31 31 32 32 32 31 31 30 30 29 30 30 30 30 30 30 30 29 29 28 28 27 27 27 27 27 27 26 26 25 25 25 25 25 25 25 24 24 24 24 24 24 23 23 23 23 22 22 22 23 23 24 24 24 23
36 35 34 33 32 31 31 31 32 32 32 32 31 31 31 31 31 31 32 31 31 30 30 29 29 29 29 30 30 30 29 29 28 27 27 27 27 27 27 27 27 27 26 25 25 25 25 25 25 25 24 24 24 24 24 23 23 23 23 22 22 21 22 22 23 24 24 24 24
35 35 33 32 32 31 31 31 32 32 32 32 31 31 31 31 30 31 31 31 31 30 30 29 29 29 29 29 29 30 29 28 27 27 27 27 27 27 27 27 27 27 26 24 25 25 26 25 25 25 24 24 23 23 23 23 23 23 23 22 22 21 21 22 22 23 23 23 23
35 35 34 33 32 32 31 32 32 32 32 32 31 31 30 30 30 30 30 30 31 30 30 29 29 29 29 29 29 29 29 29 28 27 27 27 27 27 27 27 27 27 26 24 25 25 26 26 25 25 24 23 23 23 23 23 23 22 22 22 22 21 21 21 22 22 22 22 23
35 35 34 33 33 32 32 32 32 32 32 31 31 30 30 30 30 30 30 30 31 30 30 29 29 29 29 29 29 29 29 29 28 28 28 28 27 27 27 27 27 27 26 24 24 25 25 25 25 24 23 23 23 22 22 22 22 22 22 22 22 22 22 22 22 22 22 22 22
35 35 34 34 33 33 32 32 32 32 31 31 31 30 30 30 29 30 30 31 31 30 30 29 29 29 29 29 28 28 28 29 28 28 28 28 27 27 28 28 27 26 26 24 24 24 24 25 24 24 23 23 22 22 22 22 23 23 23 23 23 22 22 22 22 22 22 22 22
35 35 34 34 33 33 33 32 32 31 31 31 31 30 30 30 29 30 30 30 30 30 30 29 30 30 29 29 28 28 28 28 28 28 28 28 28 28 28 28 27 26 25 24 24 23 23 23 23 23 22 22 22 22 22 22 23 23 23 23 23 22 22 22 22 22 22 22 23
34 34 34 33 33 33 32 32 31 31 31 31 30 30 30 30 29 29 29 30 30 29 29 29 30 30 29 29 28 28 28 28 28 28 28 28 28 28 28 27 26 26 26 25 25 25 24 24 23 22 22 22 22 22 23 23 23 23 23 23 23 22 22 22 22 22 23 23 24
34 33 33 33 32 32 32 31 31 31 30 30 30 30 30 29 29 29 29 29 29 29 29 29 30 29 29 28 28 28 28 28 27 27 27 27 28 28 27 27 27 26 26 26 28 29 29 28 26 24 23 22 23 23 23 23 23 23 23 22 22 23 23 24 24 24 24 24 25
33 33 32 32 32 32 31 31 31 30 30 30 30 30 29 29 29 29 28 28 29 29 29 29 29 29 29 28 28 28 28 28 28 27 27 27 27 27 27 27 26 25 25 27 30 32 32 32 31 29 26 24 24 24 24 24 24 24 23 23 24 24 24 25 26 26 27 27 27
32 32 32 32 31 31 31 31 31 30 30 30 30 29 29 29 29 28 28 28 29 29 29 29 28 29 29 28 27 27 27 28 28 27 27 27 26 26 26 26 26 25 25 28 31 33 34 35 35 33 31 27 26 26 26 26 26 25 25 25 25 26 26 26 27 28 29 29 29
32 31 31 31 31 30 30 31 30 30 30 30 30 29 29 29 28 28 28 28 29 29 29 28 28 29 29 28 27 27 27 27 27 27 27 27 27 26 26 26 26 26 27 30 32 34 35 36 36 36 35 32 30 29 29 29 29 28 28 28 28 28 28 28 29 30 31 31 32
32 31 31 31 30 30 30 30 30 30 30 30 30 29 29 28 28 28 28 28 28 28 28 28 28 28 28 27 27 27 27 27 27 27 27 27 27 27 26 27 26 27 29 32 33 34 35 36 37 37 37 36 34 33 32 32 32 32 31 31 31 31 31 31 32 33 33 33 33
31 31 31 30 30 30 30 30 30 31 31 30 30 29 28 28 28 28 28 28 28 27 28 28 28 28 28 27 27 27 27 27 27 27 27 26 26 26 27 27 26 27 29 33 34 35 36 36 37 37 38 38 36 35 34 34 34 34 33 33 33 34 34 34 34 34 34 34 33
31 31 30 30 30 29 29 30 30 31 31 30 29 29 28 28 27 28 28 28 28 28 28 28 27 27 27 28 27 27 27 27 27 27 27 26 27 27 27 27 27 27 29 33 34 35 36 37 37 38 38 38 37 36 35 35 35 35 35 35 35 35 35 35 34 34 34 33 33
31 30 30 30 29 29 29 30 30 30 30 30 29 28 28 28 28 28 28 28 28 28 28 27 27 27 27 28 27 27 27 27 27 26 26 26 26 27 27 27 27 27 29 33 34 36 36 37 38 38 38 39 38 37 36 36 35 35 35 35 35 35 34 33 33 33 33 33 33
30 30 29 29 29 29 29 29 29 29 29 29 29 28 28 28 28 28 28 28 28 27 27 27 27 27 27 27 27 27 27 27 27 27 27 27 27 27 27 27 27 28 30 33 34 36 36 37 38 38 38 39 38 37 37 36 35 35 35 35 35 34 33 32 32 33 33 32 33
30 29 29 29 29 29 29 29 29 29 29 29 29 28 28 28 28 27 27 28 28 28 28 28 27 27 28 28 28 27 27 28 27 27 27 27 27 27 27 26 27 28 31 33 34 35 36 37 38 38 38 39 38 37 37 36 36 35 35 34 34 33 32 32 31 31 31 31 32
30 29 29 29 29 29 29 29 29 29 29 28 28 28 28 27 27 27 27 28 28 28 28 28 28 28 28 28 28 28 28 28 27 27 27 27 27 27 26 26 27 29 31 33 34 35 36 37 38 38 38 38 37 37 37 36 35 35 34 34 33 33 32 31 31 31 31 31 32
30 30 29 29 29 29 29 29 29 28 28 28 28 28 27 27 27 27 28 29 29 29 28 29 29 28 28 28 28 28 28 28 27 27 27 27 27 26 26 26 27 29 31 33 34 35 36 37 38 38 38 38 37 37 36 35 35 34 33 33 33 33 32 32 32 32 32 32 32
31 30 30 30 29 29 29 29 28 28 28 28 27 27 27 27 28 28 29 30 29 29 28 28 28 28 28 28 28 28 29 28 28 27 27 27 27 26 26 26 26 28 30 33 34 36 36 37 38 38 38 37 37 36 35 35 34 33 33 33 33 33 33 33 33 32 32 31 31
31 31 30 30 29 29 29 29 28 28 28 28 28 28 28 28 28 29 29 30 29 29 28 28 28 28 28 28 28 28 29 28 28 28 27 27 27 27 26 26 26 27 29 32 34 35 36 37 38 38 38 37 36 35 35 34 33 33 33 33 33 33 33 33 34 33 32 31 32
32 31 30 30 30 29 29 29 28 28 28 28 29 29 29 29 29 29 30 30 30 29 29 29 29 29 29 29 29 28 28 28 28 28 28 27 27 27 27 26 26 27 29 31 33 35 36 37 38 38 38 37 36 35 34 33 33 32 32 33 33 33 33 33 33 33 33 32 34
32 32 31 31 30 30 30 29 29 29 29 29 29 29 29 29 29 30 30 31 31 30 30 29 29 29 29 30 29 28 27 27 28 28 28 28 28 29 29 28 27 27 28 31 33 34 36 37 38 38 38 37 36 35 34 33 32 32 32 32 32 32 33 33 33 33 33 32 33
33 32 31 31 31 31 30 30 30 30 30 30 30 30 30 30 30 30 30 31 31 30 30 29 29 29 29 30 29 28 27 27 27 28 28 29 28 29 30 29 28 27 28 30 32 34 35 36 37 38 38 37 35 34 34 33 32 31 31 32 32 32 32 33 33 33 32 32 32
MSLP
1016.66 1016.82 1016.94 1017.14 1017.30 1017.50 1017.66 1017.78 1017.90 1018.10 1018.30 1018.50 1018.70 1018.90 1019.10 1019.30 1019.50 1019.70 1019.90 1020.10 1020.26 1020.46 1020.66 1020.90 1021.10 1021.38 1021.66 1022.02 1022.30 1022.62 1022.90 1023.22 1023.50 1023.70 1023.86 1024.10 1024.26 1024.46 1024.66 1024.90 1025.10 1025.26 1025.42 1025.62 1025.78 1025.94 1026.10 1026.26 1026.46 1026.54 1026.66 1026.70 1026.78 1026.82 1026.90 1026.98 1027.06 1027.10 1027.18 1027.22 1027.18 1027.18 1027.22 1027.22 1027.14 1027.10 1027.14 1027.22 1027.22
1016.22 1016.38 1016.66 1016.82 1017.02 1017.22 1017.38 1017.58 1017.70 1017.82 1017.98 1018.14 1018.30 1018.50 1018.74 1018.94 1019.14 1019.38 1019.58 1019.74 1019.86 1020.06 1020.26 1020.50 1020.78 1021.10 1021.38 1021.66 1021.94 1022.26 1022.62 1022.94 1023.18 1023.38 1023.58 1023.78 1023.98 1024.22 1024.38 1024.62 1024.82 1024.98 1025.14 1025.30 1025.50 1025.66 1025.82 1026.02 1026.22 1026.34 1026.38 1026.46 1026.50 1026.58 1026.66 1026.66 1026.82 1026.86 1026.94 1026.94 1026.94 1026.94 1026.94 1026.94 1026.94 1026.90 1026.94 1026.98 1027.02
1015.82 1016.10 1016.38 1016.58 1016.74 1016.90 1017.06 1017.22 1017.38 1017.50 1017.66 1017.94 1018.10 1018.38 1018.62 1018.78 1018.94 1019.10 1019.30 1019.50 1019.66 1019.82 1020.06 1020.30 1020.50 1020.82 1021.10 1021.42 1021.70 1022.02 1022.30 1022.58 1022.86 1023.10 1023.34 1023.50 1023.70 1023.94 1024.14 1024.34 1024.54 1024.70 1024.90 1025.06 1025.22 1025.38 1025.54 1025.78 1025.94 1026.02 1026.10 1026.14 1026.22 1026.22 1026.30 1026.38 1026.54 1026.62 1026.66 1026.66 1026.66 1026.74 1026.74 1026.66 1026.66 1026.66 1026.70 1026.70 1026.74
1015.58 1015.82 1016.06 1016.18 1016.30 1016.42 1016.62 1016.82 1017.06 1017.26 1017.50 1017.78 1018.02 1018.26 1018.46 1018.62 1018.78 1018.94 1019.10 1019.34 1019.58 1019.74 1019.90 1020.06 1020.30 1020.58 1020.90 1021.18 1021.50 1021.78 1022.02 1022.30 1022.62 1022.82 1023.02 1023.22 1023.38 1023.62 1023.82 1024.06 1024.22 1024.46 1024.62 1024.78 1024.98 1025.10 1025.26 1025.50 1025.66 1025.74 1025.78 1025.82 1025.90 1025.94 1025.98 1026.10 1026.22 1026.34 1026.38 1026.38 1026.46 1026.50 1026.50 1026.38 1026.38 1026.38 1026.42 1026.42 1026.42
1015.30 1015.46 1015.62 1015.78 1015.94 1016.10 1016.34 1016.58 1016.86 1017.10 1017.38 1017.66 1017.90 1018.14 1018.34 1018.50 1018.66 1018.82 1019.02 1019.22 1019.42 1019.54 1019.66 1019.82 1020.10 1020.38 1020.66 1020.94 1021.26 1021.54 1021.82 1022.10 1022.34 1022.54 1022.78 1022.90 1023.10 1023.30 1023.54 1023.74 1023.94 1024.14 1024.34 1024.50 1024.70 1024.90 1025.06 1025.22 1025.38 1025.42 1025.50 1025.54 1025.62 1025.66 1025.66 1025.78 1025.94 1026.02 1026.10 1026.10 1026.14 1026.18 1026.22 1026.18 1026.14 1026.14 1026.14 1026.10 1026.10
1014.98 1015.18 1015.38 1015.58 1015.78 1015.98 1016.22 1016.50 1016.70 1016.94 1017.22 1017.50 1017.74 1017.94 1018.10 1018.30 1018.50 1018.66 1018.82 1018.98 1019.14 1019.34 1019.50 1019.78 1019.98 1020.22 1020.50 1020.82 1021.10 1021.38 1021.66 1021.86 1022.06 1022.26 1022.50 1022.66 1022.82 1023.06 1023.26 1023.50 1023.66 1023.86 1024.10 1024.26 1024.46 1024.66 1024.82 1024.98 1025.10 1025.18 1025.22 1025.34 1025.38 1025.42 1025.46 1025.62 1025.70 1025.78 1025.82 1025.82 1025.82 1025.86 1025.90 1025.90 1025.86 1025.86 1025.86 1025.82 1025.82
1014.82 1015.10 1015.26 1015.46 1015.66 1015.90 1016.10 1016.34 1016.54 1016.82 1017.06 1017.30 1017.50 1017.62 1017.74 1017.94 1018.18 1018.38 1018.50 1018.70 1018.98 1019.22 1019.46 1019.66 1019.86 1020.06 1020.30 1020.58 1020.90 1021.14 1021.38 1021.58 1021.78 1021.94 1022.14 1022.34 1022.54 1022.78 1022.98 1023.18 1023.38 1023.58 1023.78 1023.94 1024.18 1024.38 1024.54 1024.70 1024.82 1024.86 1024.94 1025.02 1025.10 1025.18 1025.26 1025.38 1025.50 1025.50 1025.50 1025.50 1025.50 1025.54 1025.58 1025.58 1025.58 1025.62 1025.58 1025.50 1025.50
1014.74 1014.94 1015.10 1015.26 1015.54 1015.74 1015.94 1016.18 1016.46 1016.70 1016.90 1017.10 1017.22 1017.30 1017.50 1017.74 1017.98 1018.18 1018.38 1018.66 1018.86 1019.06 1019.22 1019.38 1019.58 1019.78 1019.98 1020.30 1020.58 1020.86 1021.10 1021.30 1021.46 1021.66 1021.82 1022.02 1022.22 1022.46 1022.66 1022.86 1023.10 1023.34 1023.50 1023.70 1023.90 1024.06 1024.22 1024.42 1024.50 1024.54 1024.66 1024.74 1024.78 1024.82 1024.94 1025.10 1025.22 1025.22 1025.22 1025.22 1025.22 1025.22 1025.26 1025.30 1025.38 1025.38 1025.34 1025.26 1025.26
1014.58 1014.74 1014.94 1015.14 1015.38 1015.62 1015.82 1016.10 1016.30 1016.50 1016.66 1016.82 1016.94 1017.14 1017.38 1017.62 1017.82 1018.06 1018.26 1018.50 1018.62 1018.82 1019.02 1019.18 1019.34 1019.50 1019.78 1020.02 1020.22 1020.50 1020.78 1020.94 1021.14 1021.34 1021.50 1021.74 1021.94 1022.14 1022.38 1022.58 1022.82 1023.02 1023.22 1023.42 1023.58 1023.74 1023.94 1024.10 1024.22 1024.26 1024.30 1024.38 1024.42 1024.50 1024.58 1024.78 1024.94 1024.94 1024.94 1024.94 1024.90 1024.94 1024.98 1025.02 1025.06 1025.10 1025.06 1025.02 1025.02
1014.26 1014.50 1014.82 1015.06 1015.22 1015.46 1015.74 1015.98 1016.22 1016.38 1016.50 1016.66 1016.82 1017.06 1017.22 1017.46 1017.66 1017.86 1018.02 1018.22 1018.42 1018.66 1018.82 1018.94 1019.14 1019.38 1019.58 1019.78 1019.98 1020.22 1020.38 1020.62 1020.82 1021.02 1021.22 1021.38 1021.62 1021.78 1021.98 1022.22 1022.42 1022.66 1022.86 1023.10 1023.26 1023.46 1023.62 1023.78 1023.82 1023.94 1024.02 1024.06 1024.14 1024.22 1024.30 1024.46 1024.58 1024.66 1024.66 1024.62 1024.58 1024.62 1024.66 1024.66 1024.74 1024.82 1024.82 1024.74 1024.70
1014.02 1014.30 1014.62 1014.86 1015.10 1015.38 1015.66 1015.90 1016.10 1016.26 1016.38 1016.54 1016.74 1016.94 1017.10 1017.26 1017.42 1017.62 1017.78 1018.02 1018.26 1018.42 1018.54 1018.66 1018.94 1019.10 1019.30 1019.50 1019.70 1019.90 1020.10 1020.34 1020.50 1020.70 1020.90 1021.10 1021.22 1021.42 1021.62 1021.78 1022.02 1022.22 1022.50 1022.70 1022.94 1023.18 1023.34 1023.42 1023.50 1023.58 1023.70 1023.78 1023.90 1023.98 1024.10 1024.22 1024.30 1024.38 1024.38 1024.34 1024.30 1024.34 1024.38 1024.38 1024.42 1024.50 1024.50 1024.46 1024.42
1013.94 1014.22 1014.50 1014.70 1015.02 1015.30 1015.54 1015.74 1015.94 1016.10 1016.22 1016.38 1016.50 1016.70 1016.90 1017.06 1017.18 1017.38 1017.66 1017.86 1018.02 1018.10 1018.26 1018.46 1018.66 1018.82 1018.94 1019.18 1019.38 1019.54 1019.78 1019.98 1020.22 1020.38 1020.58 1020.74 1020.90 1021.10 1021.26 1021.46 1021.66 1021.90 1022.14 1022.38 1022.62 1022.82 1022.98 1023.10 1023.14 1023.22 1023.38 1023.50 1023.66 1023.78 1023.86 1023.94 1024.02 1024.06 1024.06 1024.06 1024.10 1024.10 1024.10 1024.10 1024.14 1024.18 1024.18 1024.14 1024.14
1013.86 1014.14 1014.42 1014.66 1014.94 1015.18 1015.38 1015.50 1015.66 1015.78 1015.94 1016.10 1016.22 1016.46 1016.66 1016.78 1016.94 1017.18 1017.38 1017.54 1017.66 1017.82 1018.02 1018.22 1018.38 1018.50 1018.66 1018.82 1019.02 1019.22 1019.46 1019.66 1019.86 1020.06 1020.22 1020.42 1020.62 1020.78 1020.98 1021.18 1021.38 1021.58 1021.78 1022.06 1022.30 1022.46 1022.62 1022.70 1022.82 1022.94 1023.06 1023.22 1023.34 1023.46 1023.54 1023.66 1023.78 1023.78 1023.78 1023.78 1023.78 1023.78 1023.78 1023.78 1023.82 1023.90 1023.94 1023.90 1023.86
1013.74 1013.98 1014.22 1014.50 1014.74 1014.94 1015.10 1015.22 1015.34 1015.50 1015.66 1015.78 1015.94 1016.14 1016.38 1016.50 1016.70 1016.90 1017.06 1017.22 1017.34 1017.50 1017.74 1017.94 1018.10 1018.22 1018.38 1018.50 1018.66 1018.86 1019.10 1019.30 1019.50 1019.74 1019.94 1020.10 1020.30 1020.50 1020.70 1020.90 1021.10 1021.30 1021.50 1021.74 1021.94 1022.10 1022.22 1022.34 1022.46 1022.58 1022.74 1022.86 1022.98 1023.10 1023.22 1023.38 1023.46 1023.50 1023.50 1023.46 1023.46 1023.42 1023.42 1023.42 1023.50 1023.62 1023.66 1023.66 1023.54
1013.50 1013.70 1013.94 1014.14 1014.38 1014.54 1014.66 1014.82 1014.94 1015.10 1015.26 1015.46 1015.62 1015.78 1016.02 1016.22 1016.38 1016.54 1016.70 1016.86 1017.02 1017.22 1017.38 1017.58 1017.78 1017.90 1018.02 1018.22 1018.38 1018.54 1018.78 1019.02 1019.22 1019.42 1019.66 1019.82 1020.06 1020.22 1020.42 1020.58 1020.82 1021.02 1021.22 1021.42 1021.66 1021.78 1021.90 1021.98 1022.14 1022.30 1022.46 1022.54 1022.66 1022.82 1022.94 1023.06 1023.10 1023.14 1023.14 1023.14 1023.10 1023.10 1023.10 1023.10 1023.22 1023.30 1023.34 1023.30 1023.22
1013.10 1013.26 1013.50 1013.74 1013.94 1014.10 1014.22 1014.38 1014.54 1014.70 1014.90 1015.06 1015.22 1015.46 1015.66 1015.82 1015.98 1016.18 1016.38 1016.50 1016.70 1016.90 1017.06 1017.22 1017.38 1017.54 1017.78 1017.94 1018.10 1018.30 1018.50 1018.74 1018.94 1019.18 1019.38 1019.54 1019.78 1019.94 1020.10 1020.26 1020.50 1020.70 1020.94 1021.14 1021.30 1021.46 1021.58 1021.70 1021.86 1022.02 1022.18 1022.26 1022.38 1022.50 1022.66 1022.70 1022.78 1022.82 1022.82 1022.82 1022.82 1022.82 1022.82 1022.86 1022.94 1022.98 1022.98 1022.94 1022.94
1012.66 1012.86 1013.10 1013.34 1013.50 1013.66 1013.82 1013.98 1014.14 1014.30 1014.46 1014.66 1014.86 1015.10 1015.26 1015.46 1015.66 1015.78 1015.94 1016.14 1016.34 1016.50 1016.70 1016.86 1017.02 1017.22 1017.46 1017.66 1017.90 1018.10 1018.30 1018.50 1018.70 1018.90 1019.10 1019.22 1019.38 1019.58 1019.74 1019.94 1020.14 1020.38 1020.58 1020.82 1020.94 1021.14 1021.30 1021.42 1021.58 1021.78 1021.90 1022.02 1022.10 1022.22 1022.34 1022.42 1022.50 1022.50 1022.54 1022.54 1022.54 1022.58 1022.58 1022.62 1022.66 1022.66 1022.66 1022.62 1022.54
1012.38 1012.54 1012.78 1012.98 1013.14 1013.30 1013.46 1013.62 1013.78 1013.94 1014.10 1014.30 1014.50 1014.74 1014.94 1015.10 1015.30 1015.42 1015.54 1015.74 1015.94 1016.10 1016.30 1016.50 1016.74 1016.94 1017.10 1017.30 1017.54 1017.78 1017.98 1018.18 1018.38 1018.58 1018.74 1018.90 1019.02 1019.22 1019.38 1019.58 1019.78 1020.02 1020.22 1020.46 1020.62 1020.78 1020.94 1021.14 1021.30 1021.50 1021.66 1021.78 1021.86 1021.94 1022.06 1022.10 1022.18 1022.22 1022.22 1022.26 1022.26 1022.30 1022.30 1022.34 1022.34 1022.30 1022.30 1022.22 1022.18
1012.10 1012.30 1012.50 1012.66 1012.82 1012.94 1013.10 1013.30 1013.46 1013.66 1013.82 1014.06 1014.22 1014.46 1014.66 1014.82 1014.94 1015.10 1015.22 1015.42 1015.58 1015.74 1015.94 1016.22 1016.42 1016.62 1016.82 1016.94 1017.18 1017.38 1017.58 1017.82 1018.06 1018.26 1018.42 1018.58 1018.74 1018.90 1019.10 1019.30 1019.50 1019.74 1019.94 1020.14 1020.30 1020.46 1020.66 1020.82 1021.02 1021.22 1021.38 1021.50 1021.58 1021.70 1021.78 1021.82 1021.90 1021.90 1021.94 1021.94 1021.98 1021.98 1022.02 1022.02 1022.02 1021.98 1021.94 1021.94 1021.86
1011.78 1011.94 1012.14 1012.30 1012.50 1012.66 1012.90 1013.06 1013.22 1013.42 1013.62 1013.82 1014.02 1014.18 1014.38 1014.54 1014.70 1014.86 1014.98 1015.10 1015.26 1015.50 1015.70 1015.90 1016.10 1016.30 1016.50 1016.66 1016.86 1017.06 1017.26 1017.50 1017.78 1017.98 1018.18 1018.34 1018.50 1018.66 1018.86 1019.10 1019.26 1019.46 1019.66 1019.86 1020.02 1020.18 1020.38 1020.54 1020.74 1020.90 1021.10 1021.22 1021.30 1021.42 1021.50 1021.58 1021.58 1021.62 1021.66 1021.66 1021.66 1021.66 1021.66 1021.66 1021.66 1021.66 1021.66 1021.66 1021.62
1011.46 1011.54 1011.70 1011.94 1012.18 1012.38 1012.62 1012.78 1012.98 1013.22 1013.38 1013.62 1013.78 1013.94 1014.10 1014.30 1014.50 1014.62 1014.74 1014.90 1015.14 1015.38 1015.58 1015.74 1015.86 1016.02 1016.22 1016.42 1016.62 1016.78 1016.98 1017.26 1017.54 1017.78 1017.94 1018.10 1018.26 1018.42 1018.62 1018.82 1019.02 1019.22 1019.38 1019.58 1019.74 1019.90 1020.10 1020.26 1020.42 1020.62 1020.82 1020.94 1021.02 1021.10 1021.18 1021.22 1021.26 1021.30 1021.34 1021.34 1021.34 1021.34 1021.34 1021.34 1021.34 1021.34 1021.34 1021.30 1021.26
1011.10 1011.18 1011.34 1011.54 1011.82 1012.06 1012.26 1012.50 1012.74 1012.94 1013.14 1013.30 1013.50 1013.66 1013.90 1014.10 1014.26 1014.38 1014.58 1014.82 1015.10 1015.30 1015.50 1015.62 1015.74 1015.86 1015.98 1016.14 1016.30 1016.50 1016.78 1017.02 1017.30 1017.50 1017.70 1017.90 1018.06 1018.22 1018.38 1018.58 1018.74 1018.94 1019.10 1019.30 1019.50 1019.66 1019.78 1019.98 1020.18 1020.34 1020.50 1020.66 1020.70 1020.78 1020.86 1020.94 1020.94 1020.94 1020.94 1020.94 1020.94 1020.94 1020.94 1020.94 1020.94 1020.94 1020.94 1020.94 1020.90
1010.98 1010.98 1011.10 1011.26 1011.46 1011.70 1011.94 1012.18 1012.38 1012.62 1012.78 1012.94 1013.10 1013.34 1013.58 1013.78 1014.06 1014.30 1014.54 1014.82 1014.98 1015.18 1015.34 1015.50 1015.66 1015.78 1015.90 1015.98 1016.14 1016.34 1016.58 1016.82 1017.10 1017.30 1017.50 1017.66 1017.78 1017.98 1018.18 1018.38 1018.50 1018.66 1018.82 1018.98 1019.18 1019.38 1019.58 1019.78 1019.94 1020.10 1020.22 1020.34 1020.42 1020.50 1020.54 1020.62 1020.62 1020.58 1020.58 1020.54 1020.50 1020.54 1020.54 1020.54 1020.58 1020.58 1020.58 1020.54 1020.50
1011.02 1011.06 1011.06 1011.10 1011.22 1011.38 1011.58 1011.78 1011.94 1012.14 1012.26 1012.42 1012.66 1012.94 1013.22 1013.54 1013.86 1014.18 1014.50 1014.66 1014.82 1015.02 1015.22 1015.42 1015.54 1015.70 1015.86 1016.02 1016.14 1016.26 1016.42 1016.58 1016.82 1017.02 1017.22 1017.38 1017.54 1017.74 1017.94 1018.10 1018.22 1018.38 1018.50 1018.66 1018.86 1019.06 1019.26 1019.50 1019.66 1019.82 1019.94 1020.06 1020.14 1020.22 1020.22 1020.26 1020.26 1020.22 1020.22 1020.18 1020.14 1020.14 1020.14 1020.14 1020.18 1020.22 1020.22 1020.22 1020.14
1011.02 1011.06 1011.02 1010.98 1011.02 1011.06 1011.14 1011.26 1011.46 1011.62 1011.78 1011.98 1012.30 1012.66 1012.94 1013.30 1013.66 1013.98 1014.26 1014.50 1014.66 1014.86 1015.10 1015.26 1015.42 1015.62 1015.78 1015.98 1016.10 1016.18 1016.26 1016.38 1016.50 1016.74 1016.94 1017.14 1017.30 1017.50 1017.70 1017.86 1017.98 1018.10 1018.22 1018.38 1018.46 1018.58 1018.78 1018.98 1019.22 1019.46 1019.62 1019.74 1019.82 1019.90 1019.94 1019.94 1019.94 1019.94 1019.94 1019.90 1019.82 1019.78 1019.78 1019.74 1019.74 1019.78 1019.78 1019.78 1019.70
1010.82 1010.86 1010.86 1010.86 1010.82 1010.86 1010.90 1010.94 1011.10 1011.34 1011.66 1011.94 1012.26 1012.58 1012.86 1013.10 1013.46 1013.74 1013.98 1014.22 1014.46 1014.66 1014.86 1015.06 1015.26 1015.46 1015.66 1015.78 1015.90 1016.02 1016.14 1016.22 1016.34 1016.50 1016.66 1016.86 1017.02 1017.22 1017.42 1017.54 1017.66 1017.82 1017.94 1018.02 1018.06 1018.14 1018.26 1018.42 1018.66 1018.90 1019.14 1019.38 1019.46 1019.50 1019.54 1019.54 1019.54 1019.54 1019.54 1019.54 1019.50 1019.42 1019.38 1019.34 1019.26 1019.22 1019.22 1019.22 1019.22
1010.46 1010.50 1010.50 1010.62 1010.74 1010.82 1010.94 1011.02 1011.26 1011.50 1011.78 1012.10 1012.38 1012.54 1012.78 1012.98 1013.26 1013.50 1013.74 1013.94 1014.18 1014.38 1014.62 1014.82 1014.98 1015.14 1015.30 1015.50 1015.66 1015.78 1015.90 1016.02 1016.10 1016.26 1016.42 1016.58 1016.78 1016.94 1017.10 1017.22 1017.38 1017.50 1017.66 1017.66 1017.66 1017.74 1017.82 1017.94 1018.10 1018.26 1018.50 1018.82 1018.94 1019.02 1019.02 1019.02 1019.06 1019.10 1019.10 1019.10 1019.06 1018.98 1018.94 1018.90 1018.82 1018.78 1018.74 1018.66 1018.62
1009.74 1009.86 1010.06 1010.30 1010.58 1010.78 1010.94 1011.22 1011.42 1011.62 1011.78 1012.02 1012.22 1012.42 1012.66 1012.86 1013.06 1013.26 1013.46 1013.66 1013.82 1014.10 1014.30 1014.50 1014.66 1014.82 1015.02 1015.22 1015.34 1015.46 1015.58 1015.70 1015.90 1016.02 1016.18 1016.30 1016.46 1016.62 1016.78 1016.86 1017.02 1017.14 1017.22 1017.30 1017.38 1017.38 1017.46 1017.58 1017.62 1017.70 1017.86 1018.14 1018.34 1018.46 1018.50 1018.50 1018.50 1018.54 1018.58 1018.54 1018.50 1018.50 1018.50 1018.46 1018.38 1018.30 1018.22 1018.10 1018.02
1009.14 1009.42 1009.78 1010.10 1010.34 1010.54 1010.82 1011.10 1011.26 1011.42 1011.62 1011.82 1012.06 1012.26 1012.46 1012.66 1012.82 1012.94 1013.10 1013.26 1013.46 1013.66 1013.82 1014.10 1014.38 1014.58 1014.78 1014.90 1015.02 1015.14 1015.34 1015.50 1015.66 1015.74 1015.90 1016.10 1016.22 1016.30 1016.42 1016.58 1016.70 1016.82 1016.90 1016.94 1017.02 1017.10 1017.18 1017.22 1017.22 1017.34 1017.42 1017.50 1017.74 1017.86 1017.94 1017.94 1017.94 1017.94 1017.94 1017.94 1017.94 1017.94 1017.94 1017.94 1017.86 1017.78 1017.66 1017.58 1017.62
1009.22 1009.46 1009.70 1009.94 1010.14 1010.38 1010.62 1010.82 1010.98 1011.18 1011.38 1011.66 1011.86 1012.06 1012.22 1012.34 1012.38 1012.50 1012.66 1012.82 1012.98 1013.22 1013.50 1013.78 1014.10 1014.30 1014.38 1014.50 1014.66 1014.94 1015.10 1015.22 1015.38 1015.50 1015.66 1015.78 1015.90 1016.02 1016.14 1016.30 1016.42 1016.50 1016.54 1016.62 1016.66 1016.74 1016.82 1016.86 1016.94 1016.98 1017.06 1017.10 1017.18 1017.30 1017.38 1017.38 1017.38 1017.42 1017.42 1017.38 1017.38 1017.38 1017.38 1017.38 1017.34 1017.30 1017.30 1017.30 1017.30
1009.34 1009.50 1009.70 1009.86 1010.06 1010.22 1010.38 1010.54 1010.74 1010.94 1011.22 1011.38 1011.58 1011.70 1011.82 1011.94 1011.94 1012.06 1012.22 1012.42 1012.70 1012.98 1013.30 1013.58 1013.78 1013.94 1014.06 1014.22 1014.42 1014.62 1014.78 1014.90 1015.10 1015.22 1015.38 1015.50 1015.58 1015.70 1015.86 1015.98 1016.10 1016.22 1016.30 1016.30 1016.38 1016.38 1016.46 1016.50 1016.58 1016.66 1016.70 1016.74 1016.82 1016.90 1016.94 1016.94 1016.98 1017.02 1017.02 1016.98 1016.98 1017.02 1017.02 1017.02 1017.02 1017.02 1017.06 1017.06 1017.10
1009.26 1009.46 1009.62 1009.78 1009.90 1010.02 1010.18 1010.38 1010.58 1010.78 1010.94 1011.14 1011.26 1011.38 1011.50 1011.54 1011.66 1011.78 1012.02 1012.30 1012.62 1012.94 1013.18 1013.38 1013.50 1013.66 1013.78 1014.02 1014.18 1014.26 1014.42 1014.62 1014.78 1014.94 1015.06 1015.18 1015.30 1015.42 1015.58 1015.70 1015.86 1015.94 1016.02 1016.06 1016.10 1016.10 1016.10 1016.22 1016.26 1016.34 1016.38 1016.42 1016.46 1016.50 1016.58 1016.66 1016.66 1016.66 1016.70 1016.70 1016.70 1016.70 1016.78 1016.82 1016.86 1016.86 1016.90 1016.90 1016.94
1009.26 1009.42 1009.54 1009.66 1009.78 1009.94 1010.10 1010.26 1010.46 1010.62 1010.78 1010.90 1010.98 1011.10 1011.22 1011.38 1011.54 1011.78 1011.98 1012.22 1012.50 1012.70 1012.86 1013.02 1013.18 1013.38 1013.54 1013.70 1013.86 1013.98 1014.14 1014.30 1014.42 1014.54 1014.70 1014.86 1015.02 1015.18 1015.34 1015.50 1015.62 1015.70 1015.78 1015.78 1015.78 1015.78 1015.82 1015.90 1015.94 1016.02 1016.10 1016.10 1016.18 1016.22 1016.26 1016.34 1016.38 1016.42 1016.42 1016.42 1016.42 1016.50 1016.58 1016.66 1016.66 1016.70 1016.70 1016.74 1016.74
1009.22 1009.34 1009.42 1009.54 1009.66 1009.82 1009.98 1010.18 1010.34 1010.50 1010.66 1010.78 1010.86 1010.94 1011.10 1011.34 1011.50 1011.70 1011.86 1012.02 1012.22 1012.38 1012.54 1012.66 1012.82 1012.98 1013.18 1013.34 1013.50 1013.66 1013.78 1013.94 1014.14 1014.30 1014.46 1014.58 1014.74 1014.94 1015.06 1015.18 1015.26 1015.38 1015.42 1015.50 1015.50 1015.54 1015.58 1015.62 1015.70 1015.74 1015.78 1015.86 1015.94 1015.94 1016.02 1016.06 1016.10 1016.14 1016.14 1016.18 1016.22 1016.30 1016.38 1016.46 1016.50 1016.50 1016.54 1016.54 1016.50
1009.06 1009.18 1009.30 1009.38 1009.50 1009.66 1009.82 1009.98 1010.18 1010.38 1010.50 1010.66 1010.78 1010.90 1011.02 1011.18 1011.30 1011.38 1011.54 1011.70 1011.90 1012.10 1012.22 1012.38 1012.54 1012.74 1012.90 1013.06 1013.18 1013.30 1013.46 1013.62 1013.78 1013.98 1014.14 1014.30 1014.50 1014.66 1014.78 1014.82 1014.94 1014.98 1015.10 1015.22 1015.22 1015.26 1015.30 1015.38 1015.42 1015.50 1015.50 1015.62 1015.66 1015.70 1015.74 1015.78 1015.82 1015.86 1015.90 1015.94 1016.02 1016.10 1016.18 1016.26 1016.30 1016.30 1016.30 1016.30 1016.26
1008.82 1008.94 1009.02 1009.14 1009.26 1009.42 1009.58 1009.74 1009.94 1010.14 1010.30 1010.42 1010.50 1010.62 1010.74 1010.86 1010.94 1011.06 1011.22 1011.42 1011.62 1011.78 1011.94 1012.10 1012.30 1012.50 1012.66 1012.78 1012.94 1013.02 1013.14 1013.30 1013.46 1013.66 1013.86 1014.02 1014.22 1014.38 1014.46 1014.50 1014.62 1014.74 1014.82 1014.86 1014.94 1014.94 1015.02 1015.06 1015.10 1015.18 1015.26 1015.38 1015.38 1015.46 1015.50 1015.54 1015.58 1015.66 1015.66 1015.74 1015.78 1015.86 1015.94 1015.98 1015.98 1016.02 1016.06 1016.06 1016.02
1008.54 1008.66 1008.74 1008.86 1009.02 1009.14 1009.30 1009.46 1009.66 1009.82 1009.94 1009.98 1010.10 1010.22 1010.34 1010.46 1010.62 1010.82 1010.98 1011.22 1011.34 1011.46 1011.58 1011.74 1011.94 1012.10 1012.22 1012.38 1012.54 1012.66 1012.82 1012.98 1013.18 1013.38 1013.54 1013.70 1013.86 1014.02 1014.14 1014.22 1014.38 1014.46 1014.50 1014.54 1014.66 1014.66 1014.70 1014.78 1014.82 1014.90 1014.98 1015.10 1015.14 1015.18 1015.22 1015.34 1015.38 1015.42 1015.46 1015.50 1015.54 1015.58 1015.66 1015.70 1015.74 1015.78 1015.78 1015.78 1015.78
1008.38 1008.46 1008.54 1008.66 1008.78 1008.90 1009.02 1009.18 1009.30 1009.38 1009.42 1009.50 1009.66 1009.78 1009.94 1010.18 1010.38 1010.54 1010.70 1010.90 1010.98 1011.10 1011.22 1011.38 1011.54 1011.66 1011.82 1012.02 1012.22 1012.38 1012.58 1012.78 1012.94 1013.10 1013.22 1013.38 1013.50 1013.66 1013.82 1013.94 1014.10 1014.22 1014.30 1014.34 1014.38 1014.38 1014.42 1014.50 1014.54 1014.62 1014.70 1014.82 1014.86 1014.94 1015.02 1015.10 1015.14 1015.22 1015.22 1015.26 1015.26 1015.30 1015.38 1015.50 1015.50 1015.50 1015.50 1015.50 1015.46
1008.22 1008.34 1008.38 1008.42 1008.50 1008.62 1008.70 1008.82 1008.86 1008.90 1008.98 1009.14 1009.34 1009.50 1009.70 1009.90 1010.06 1010.22 1010.38 1010.50 1010.62 1010.74 1010.90 1011.10 1011.22 1011.38 1011.58 1011.82 1012.06 1012.22 1012.38 1012.54 1012.66 1012.78 1012.90 1013.06 1013.18 1013.34 1013.50 1013.66 1013.78 1013.94 1014.10 1014.10 1014.14 1014.18 1014.22 1014.22 1014.30 1014.34 1014.42 1014.50 1014.62 1014.70 1014.82 1014.86 1014.94 1014.98 1015.02 1015.02 1015.06 1015.10 1015.14 1015.22 1015.22 1015.22 1015.22 1015.22 1015.14
1007.94 1008.06 1008.10 1008.14 1008.22 1008.30 1008.38 1008.46 1008.50 1008.58 1008.74 1008.94 1009.10 1009.26 1009.42 1009.54 1009.70 1009.90 1010.10 1010.26 1010.38 1010.50 1010.66 1010.82 1010.98 1011.22 1011.42 1011.66 1011.86 1012.02 1012.14 1012.30 1012.46 1012.50 1012.62 1012.78 1012.94 1013.10 1013.22 1013.38 1013.50 1013.66 1013.78 1013.90 1013.94 1013.94 1013.98 1013.98 1014.02 1014.10 1014.14 1014.26 1014.38 1014.50 1014.58 1014.66 1014.70 1014.74 1014.74 1014.78 1014.82 1014.82 1014.86 1014.90 1014.94 1014.94 1014.94 1014.94 1014.86
1007.66 1007.74 1007.78 1007.86 1007.94 1008.02 1008.10 1008.18 1008.22 1008.38 1008.54 1008.70 1008.82 1008.98 1009.14 1009.34 1009.54 1009.74 1009.90 1010.06 1010.14 1010.26 1010.42 1010.62 1010.82 1011.02 1011.22 1011.42 1011.58 1011.74 1011.94 1012.10 1012.22 1012.30 1012.38 1012.50 1012.74 1012.86 1012.98 1013.10 1013.22 1013.38 1013.50 1013.66 1013.70 1013.74 1013.74 1013.74 1013.78 1013.78 1013.86 1014.02 1014.14 1014.26 1014.38 1014.46 1014.46 1014.50 1014.50 1014.50 1014.58 1014.62 1014.62 1014.62 1014.66 1014.66 1014.66 1014.66 1014.62
Wind_Speed
15 14 12 12 11 11 10 10 10 10 9 9 10 10 10 10 9 9 8 9 9 9 9 9 9 10 11 14 15 16 16 16 16 16 16 16 14 14 14 12 12 12 11 11 10 9 8 8 7 6 5 5 6 6 6 6 7 7 8 8 7 8 8 9 10 10 11 11 9
17 16 14 13 12 11 9 9 10 10 9 8 9 9 9 9 9 9 9 9 9 8 8 8 9 11 12 14 15 16 16 16 16 16 16 16 15 15 14 12 12 12 12 11 11 9 8 8 7 6 5 5 6 6 7 7 7 7 8 9 8 7 7 8 9 10 10 10 9
16 15 14 14 13 12 10 10 10 11 11 9 8 8 8 8 8 8 8 8 8 8 8 7 9 11 13 14 14 14 15 15 16 16 15 15 15 14 14 12 13 13 12 11 10 9 8 8 7 6 6 6 7 7 7 7 7 8 8 10 8 7 6 7 8 8 8 8 9
16 15 15 15 16 15 13 11 11 12 11 9 8 8 8 7 7 7 7 8 8 8 8 8 9 10 12 13 14 14 14 15 16 16 15 14 14 14 14 13 13 13 12 11 11 10 9 9 7 6 6 7 8 8 7 6 7 7 7 8 7 6 7 7 7 7 7 7 8
16 16 15 15 17 16 14 11 12 11 10 8 7 7 7 7 7 6 7 7 8 8 9 9 9 9 11 12 14 15 15 15 16 15 14 14 14 14 14 14 14 13 12 11 11 10 10 9 6 6 6 7 7 7 7 7 7 7 7 6 6 6 7 7 7 7 6 7 7
15 15 15 14 16 15 13 11 12 11 10 8 9 9 9 7 7 8 8 8 9 9 10 11 10 10 11 13 14 14 14 15 15 15 14 14 13 13 14 14 14 13 11 11 11 11 10 9 6 6 6 6 6 7 7 8 8 7 7 7 7 7 7 7 7 7 7 8 9
14 14 15 14 15 14 13 12 11 10 9 8 11 12 12 10 10 10 11 9 9 9 10 10 10 11 11 13 13 13 14 13 14 14 15 14 13 14 14 14 13 12 12 11 11 10 9 9 6 6 6 6 6 7 8 8 8 8 8 8 7 7 7 8 7 7 8 10 11
12 13 14 14 14 14 13 12 11 10 9 9 11 13 14 12 12 12 11 9 9 9 10 9 11 12 13 13 13 14 14 14 14 14 14 13 14 14 14 14 13 12 12 11 11 10 9 8 6 6 6 6 6 7 8 9 9 9 9 9 8 7 7 7 7 7 9 11 12
11 12 13 13 13 13 13 12 11 11 10 10 12 13 13 13 13 13 11 10 10 10 10 10 12 13 14 14 14 14 14 14 14 14 14 13 14 14 14 13 13 12 12 11 11 11 10 8 7 7 7 7 7 8 8 10 10 10 10 10 9 8 8 8 8 9 10 11 12
11 11 11 11 12 12 12 12 11 12 12 12 12 12 13 13 13 12 11 9 9 10 10 11 12 13 14 15 14 14 14 13 13 14 14 14 14 14 14 12 13 12 11 11 10 11 10 8 8 8 8 8 9 9 9 10 11 11 11 9 9 10 10 10 10 10 10 11 12
12 11 11 11 12 12 11 11 11 11 12 11 12 12 12 13 13 12 11 9 10 11 12 12 13 14 14 14 14 14 14 13 13 13 14 14 14 14 14 13 13 13 12 11 10 9 9 8 9 9 10 9 9 9 9 10 11 11 11 10 10 11 11 11 11 10 10 11 12
11 10 10 10 11 11 11 12 11 11 11 12 12 12 12 12 13 12 11 11 12 12 13 12 14 14 14 13 13 13 13 13 13 13 14 14 14 14 14 13 13 13 13 12 10 9 8 9 10 11 11 11 9 8 9 10 11 11 12 12 11 11 12 12 11 10 9 10 11
10 9 9 10 10 11 12 12 11 11 12 13 12 12 11 11 12 12 13 13 13 12 12 12 13 14 14 13 13 13 13 13 14 14 13 14 14 14 13 13 13 13 12 12 11 10 9 10 11 12 12 12 10 9 9 10 11 11 12 13 12 12 12 12 11 10 10 11 11
10 10 10 10 11 12 12 13 11 11 12 13 13 12 11 11 12 13 13 13 13 12 11 12 13 13 13 13 13 14 14 14 14 14 14 13 13 13 13 12 13 12 12 11 11 11 11 11 12 12 12 12 11 11 11 11 11 11 12 13 13 13 13 12 11 10 11 11 12
11 11 11 11 12 12 12 13 11 11 12 13 12 12 11 10 12 12 13 13 13 12 12 12 12 12 13 14 14 14 14 14 14 14 14 13 13 13 13 12 13 12 12 11 11 12 12 12 12 12 12 12 12 11 11 11 11 12 12 12 13 13 12 11 11 10 11 12 12
12 12 12 13 13 13 13 13 11 11 12 12 12 12 11 11 11 12 13 13 13 12 11 13 12 12 13 14 14 14 14 14 14 14 14 13 13 14 13 13 13 13 13 12 12 12 12 12 12 11 12 12 12 11 11 11 11 12 12 12 12 12 12 11 11 11 11 12 13
13 13 13 14 14 14 14 13 11 11 12 12 13 12 12 11 11 12 14 14 12 12 12 14 13 12 12 13 14 13 13 13 13 13 13 13 14 14 14 14 14 14 13 13 13 12 12 12 11 11 11 11 11 11 11 11 11 12 12 12 12 11 11 11 11 12 12 12 13
13 13 13 14 15 15 15 14 13 12 13 13 13 13 12 12 12 12 13 15 14 14 14 15 13 13 13 14 13 13 12 13 13 13 13 14 14 14 14 14 14 14 13 13 13 13 13 12 11 11 11 11 11 11 11 11 11 11 12 12 11 11 11 12 12 12 12 13 14
13 13 14 15 15 15 15 15 14 14 13 13 13 13 13 13 13 13 13 14 15 15 15 15 14 14 14 15 14 13 13 13 13 14 14 14 14 14 14 13 13 13 13 12 13 13 13 12 12 11 11 10 10 10 10 10 11 11 11 11 11 11 11 11 12 12 12 12 13
14 14 15 15 15 15 15 15 15 14 13 12 13 13 14 14 14 14 14 15 15 15 15 15 14 14 14 15 15 14 13 12 13 14 14 13 13 13 13 13 13 13 13 12 12 12 12 12 12 12 11 11 11 11 11 11 11 11 11 10 10 11 11 11 11 12 12 12 13
15 15 15 15 15 15 15 14 14 14 13 12 13 14 14 14 14 15 15 15 15 14 15 15 15 15 15 15 15 14 13 11 12 13 13 13 13 13 13 13 13 13 12 11 11 12 12 12 11 11 11 11 11 11 11 11 11 11 11 10 10 11 11 11 11 12 12 13 13
14 14 14 14 14 14 14 14 13 13 13 13 14 14 14 14 14 14 14 14 14 14 14 14 15 15 15 15 15 14 13 11 12 12 13 12 13 13 13 12 12 12 12 11 11 11 12 11 11 11 10 10 11 11 11 11 11 11 11 11 11 11 11 11 12 12 12 13 13
13 13 13 13 13 14 14 14 14 14 14 14 14 14 14 14 14 14 13 13 13 13 14 13 13 14 14 14 14 14 13 12 12 12 12 12 12 12 12 12 12 12 12 11 11 11 10 10 10 10 10 10 11 11 11 11 11 11 11 12 11 11 11 11 11 12 12 12 13
12 11 11 10 12 14 15 15 15 15 16 15 15 14 14 14 13 13 13 13 13 13 13 11 12 12 13 13 13 13 13 13 13 13 13 13 13 13 12 11 11 12 11 10 11 11 11 9 9 9 10 10 10 10 11 11 11 11 11 11 11 11 11 11 11 11 12 12 12
11 11 11 11 13 14 15 15 16 16 16 15 14 14 13 13 13 13 13 13 13 13 13 12 12 12 11 12 12 13 13 14 14 14 14 14 13 13 12 11 10 10 10 10 14 16 16 13 11 9 9 9 9 10 10 11 11 11 11 10 11 10 11 11 11 12 12 13 13
11 11 12 13 13 14 15 15 15 15 14 13 13 12 13 13 12 13 13 13 13 13 13 13 12 12 12 11 12 12 13 13 13 14 14 13 13 13 12 10 10 8 9 11 17 20 20 19 17 14 11 9 9 10 10 10 11 11 11 11 11 11 11 11 12 12 13 13 13
12 13 14 13 13 13 13 13 12 12 12 12 12 12 12 12 12 12 13 14 14 14 14 13 13 13 12 11 12 13 13 12 13 13 14 13 13 13 13 11 9 8 9 14 18 21 21 21 21 19 15 11 10 10 10 10 11 11 12 11 11 11 11 12 12 13 13 13 14
15 14 14 13 13 12 12 11 11 11 12 12 12 12 12 12 13 13 14 14 15 14 13 12 12 11 10 10 12 14 14 13 13 13 13 13 13 14 13 11 10 10 12 17 19 21 21 21 22 21 19 15 12 11 11 10 10 11 11 11 11 11 12 12 12 12 13 13 12
15 14 13 12 12 12 11 11 12 12 13 13 13 13 13 13 14 15 15 16 16 15 13 11 10 9 9 10 12 13 14 14 13 12 12 13 13 13 13 12 11 12 15 19 20 21 21 21 21 21 21 19 13 10 10 10 10 9 9 9 10 10 11 11 11 11 11 11 9
12 11 11 12 12 12 11 12 13 13 13 12 13 13 14 14 15 16 17 17 17 15 13 11 10 10 11 12 12 12 13 13 12 12 12 13 13 13 13 13 12 13 15 20 21 21 21 21 21 21 21 21 16 12 9 9 9 9 8 8 9 10 11 11 12 11 10 9 8
10 10 11 11 11 12 12 12 12 13 13 12 13 14 15 16 17 17 17 16 15 14 13 12 12 13 13 13 12 12 13 13 12 12 13 13 14 14 14 14 13 13 15 20 21 21 21 21 21 21 21 21 17 12 9 9 9 9 9 9 10 11 11 11 11 10 10 9 8
9 10 10 11 11 11 12 12 12 13 13 14 15 15 16 16 16 16 15 14 13 13 13 13 14 14 14 13 13 13 13 13 13 13 13 13 14 14 13 13 13 13 15 19 21 21 21 21 20 20 20 21 17 13 10 9 9 9 10 11 11 11 10 9 8 8 9 9 9
9 9 10 11 11 11 11 11 12 13 13 14 15 15 15 15 14 13 13 12 13 13 14 15 15 15 15 14 14 14 14 14 14 14 14 14 14 13 13 12 12 13 16 20 20 21 21 20 20 20 20 20 16 13 11 10 9 9 9 10 10 10 9 8 8 8 8 9 9
9 9 10 11 11 11 11 11 12 12 13 14 14 14 14 13 13 13 13 13 13 14 14 15 15 15 15 15 14 14 14 13 14 14 14 14 14 13 13 11 10 12 16 20 21 21 21 20 20 20 20 20 15 12 11 11 9 9 8 8 8 7 7 7 7 8 8 8 9
10 10 11 11 11 11 11 12 12 13 13 13 14 14 13 13 13 14 14 14 14 14 14 15 15 14 14 14 14 14 15 14 14 14 14 14 13 13 13 12 11 13 17 20 20 21 20 20 20 20 19 17 13 11 10 10 9 9 9 8 8 7 7 7 7 7 8 8 9
11 11 12 12 12 12 12 12 13 13 14 14 14 14 14 14 14 14 14 15 15 15 15 15 14 14 14 14 14 14 15 14 14 14 14 14 13 14 14 13 12 14 17 20 20 20 20 20 20 20 19 15 11 9 9 8 8 8 8 8 8 8 8 8 8 8 8 8 9
11 12 12 12 12 12 13 13 13 14 15 15 15 15 15 15 14 14 14 15 15 15 15 15 15 15 15 15 14 14 14 14 14 13 13 14 14 14 14 13 13 14 17 19 20 20 20 20 20 19 17 13 10 8 8 7 6 7 7 8 9 9 9 9 9 9 9 9 9
11 12 12 12 12 13 13 14 15 16 16 16 16 15 15 15 14 14 14 15 15 15 15 15 16 16 16 15 14 14 14 14 14 14 14 14 14 14 14 14 13 13 15 18 19 20 20 20 20 19 17 12 10 8 7 6 6 7 7 8 9 9 9 8 8 8 9 9 11
11 12 12 13 13 13 14 15 16 16 17 16 15 15 15 14 13 13 14 14 14 15 15 15 16 15 15 15 13 13 13 13 14 14 14 14 14 14 14 14 12 12 14 16 19 19 20 20 20 19 17 13 10 8 7 6 7 7 8 8 8 8 8 7 7 8 9 10 13
12 12 13 13 14 14 15 15 16 16 15 15 15 15 14 14 13 13 13 13 14 14 14 14 15 14 14 14 13 13 13 13 13 14 14 14 14 15 15 14 12 12 13 16 18 19 20 20 20 20 18 12 9 7 6 6 7 8 8 8 7 7 7 7 7 7 8 9 12
11 12 13 14 14 14 15 15 15 15 14 14 14 14 13 13 13 12 12 12 13 13 12 12 13 14 14 14 13 12 13 13 13 13 14 14 14 15 15 14 13 12 12 15 17 19 20 20 20 20 18 12 9 7 6 6 7 8 8 8 8 7 7 7 7 7 7 8 8
Wind_Direction
210 208 207 206 205 206 207 209 208 205 200 195 194 192 191 191 192 191 189 188 190 191 191 191 191 190 189 186 184 185 188 190 191 193 194 195 195 195 194 193 193 194 195 195 194 194 194 194 196 200 207 211 213 216 218 218 218 219 222 225 231 235 237 240 243 244 243 241 243
210 209 208 207 207 207 207 208 208 206 202 198 196 193 191 192 192 190 189 190 192 190 188 189 188 186 185 184 183 184 186 188 190 192 195 196 195 194 193 193 194 195 194 194 192 192 192 191 193 199 206 211 213 216 218 217 216 220 225 227 232 235 238 240 244 245 245 244 243
210 208 207 207 207 206 206 206 207 205 202 199 195 192 191 193 193 191 190 190 190 187 185 184 184 182 181 181 182 183 185 187 188 191 194 196 195 193 192 193 194 196 196 194 192 192 191 189 193 200 208 212 213 216 218 217 215 220 225 228 231 234 237 241 244 245 245 244 242
208 207 207 208 208 207 206 205 206 204 202 196 192 190 192 194 193 191 189 186 186 186 186 182 180 178 178 179 181 183 185 187 187 190 194 196 194 192 192 192 193 195 196 194 193 192 191 188 194 203 211 215 216 217 218 215 214 218 224 227 230 233 237 243 245 244 244 246 243
208 208 207 209 209 209 208 206 204 202 199 191 187 189 192 192 192 189 186 184 188 189 186 179 176 175 175 177 180 182 185 187 188 190 193 195 193 192 191 193 194 194 194 193 192 192 191 189 195 206 213 216 217 219 220 217 215 219 224 228 229 231 235 240 243 243 244 246 244
210 210 210 210 210 210 210 207 203 199 194 186 188 190 192 191 190 188 188 188 189 186 182 178 175 173 174 176 179 182 184 187 189 191 193 195 193 192 192 194 194 194 192 192 191 191 190 189 198 207 212 213 220 222 222 217 218 221 226 230 231 233 235 238 240 242 243 245 246
210 210 210 210 209 208 208 206 201 195 190 187 191 194 194 192 191 191 190 188 184 181 180 180 178 176 175 176 179 182 184 187 190 191 192 193 192 191 192 194 194 193 191 190 190 190 191 191 199 208 213 214 219 220 218 215 218 222 227 232 232 234 235 237 238 241 243 246 247
209 209 209 208 207 206 205 203 197 193 191 193 196 197 196 192 191 191 189 185 182 181 181 182 181 178 177 176 179 182 184 187 189 190 191 191 191 191 192 192 192 192 192 190 190 190 191 192 201 209 214 216 221 219 216 212 216 222 228 233 235 235 235 235 236 239 243 246 246
208 208 207 206 204 204 202 200 196 194 195 198 199 198 195 192 191 189 188 188 185 183 182 183 182 180 178 178 180 182 184 186 188 189 189 190 190 190 190 190 190 191 191 190 191 191 192 193 203 210 214 216 221 221 216 209 213 220 227 234 237 238 237 236 235 238 242 245 246
207 204 202 203 203 201 199 198 197 197 199 201 200 197 195 193 192 191 190 188 183 182 183 185 181 180 180 181 182 183 184 186 187 188 188 189 189 189 189 188 189 190 191 190 191 192 193 196 206 212 215 217 221 222 219 212 214 219 226 233 237 239 239 238 237 238 241 244 247
207 202 198 199 199 197 195 196 199 200 201 202 199 197 195 195 193 192 189 184 181 184 186 184 181 181 182 183 184 184 184 185 186 187 188 189 189 189 188 188 188 189 190 190 190 191 193 200 208 212 215 216 218 219 219 216 218 222 227 234 237 240 241 241 240 239 241 244 247
207 200 196 195 193 192 193 196 199 201 202 203 200 197 195 196 193 190 186 183 185 187 187 183 182 182 183 183 184 185 184 184 185 186 187 189 189 189 188 188 188 189 190 190 189 191 196 203 209 212 214 215 215 216 217 217 220 225 230 235 237 240 242 243 242 241 242 244 248
204 197 192 191 188 190 193 198 200 201 202 203 200 198 196 196 191 187 185 186 188 187 185 184 183 184 184 184 184 184 184 184 185 186 187 188 188 188 187 188 189 190 191 191 190 193 199 205 209 211 213 213 214 215 215 216 220 225 231 235 237 239 242 243 242 242 243 245 248
199 193 189 187 186 190 194 199 201 202 203 203 201 197 194 194 190 188 187 188 188 186 183 183 185 186 187 185 184 184 183 184 185 186 187 187 187 186 186 188 190 191 192 192 194 197 201 206 208 209 211 213 214 215 215 215 219 225 230 234 237 239 241 242 241 241 242 245 248
197 193 188 185 187 191 196 199 201 202 202 203 200 196 193 192 190 189 188 190 189 186 183 183 186 188 188 186 185 183 183 183 184 186 187 187 186 186 187 189 190 191 193 194 196 200 203 206 207 208 210 212 215 216 217 217 220 225 229 233 236 238 241 242 241 241 242 244 248
197 193 189 187 190 193 197 199 201 201 202 202 198 195 192 192 191 189 189 189 188 186 184 185 186 186 186 186 185 183 182 183 184 185 186 187 187 187 189 190 192 193 194 196 198 201 204 206 206 207 209 212 215 217 218 219 222 225 229 232 235 237 240 241 242 242 243 245 248
198 194 191 190 193 195 198 199 200 201 201 201 197 194 193 191 191 191 190 189 188 187 186 187 185 183 183 185 184 183 182 183 185 186 188 188 188 189 190 192 193 194 195 196 198 201 203 205 205 207 209 213 216 219 220 220 223 225 228 231 233 235 238 240 242 243 245 246 248
200 197 194 194 196 198 199 200 201 201 200 199 196 195 193 191 191 192 192 191 189 188 187 186 185 183 182 183 182 182 183 184 186 188 190 191 190 190 191 193 194 195 195 196 198 200 202 203 204 206 209 214 218 220 221 222 224 226 228 231 232 234 236 238 241 243 245 246 248
202 199 198 198 200 200 201 201 202 202 200 198 196 195 194 193 192 192 193 192 190 188 186 185 184 184 183 183 182 183 184 185 187 190 192 192 191 191 192 193 195 195 195 196 199 200 201 201 203 205 209 213 217 220 222 223 226 227 229 230 232 233 234 236 238 241 243 245 247
204 202 201 201 201 201 202 202 203 202 201 198 196 196 195 194 193 193 193 193 191 189 186 184 184 184 184 184 183 184 185 185 187 191 193 192 191 191 192 193 195 195 195 195 198 200 201 202 203 205 208 212 216 219 222 223 226 228 230 231 232 233 234 235 237 239 241 243 246
206 204 203 201 201 201 202 202 202 201 200 199 198 197 196 195 194 195 195 193 190 188 187 187 186 185 185 184 184 184 184 184 188 191 193 192 192 193 193 193 195 195 195 194 197 199 200 202 203 205 207 211 215 218 221 223 226 228 230 231 232 233 234 235 237 238 240 241 243
210 206 203 200 200 200 200 200 200 200 200 200 199 197 196 195 196 196 195 192 189 188 189 190 189 188 186 185 184 183 183 184 188 191 192 192 193 194 194 194 195 195 195 195 196 198 199 202 203 205 207 211 215 218 220 222 226 229 231 233 234 235 235 236 237 239 240 241 242
213 208 203 200 199 199 199 198 198 199 199 199 198 197 195 195 195 195 193 191 190 190 191 191 192 191 189 187 184 183 183 184 188 190 192 192 193 195 195 195 195 196 196 196 195 195 197 201 204 206 208 212 216 219 221 223 226 229 232 235 236 237 237 237 238 239 240 241 243
216 210 205 201 198 198 197 197 197 198 199 199 196 195 193 193 191 191 191 191 191 191 191 192 193 192 191 188 186 185 185 185 187 189 191 193 194 194 194 194 196 198 198 197 195 194 194 197 202 206 210 213 217 220 222 223 226 229 232 235 237 239 240 239 239 239 240 242 244
216 212 208 205 201 199 198 197 198 199 199 197 194 191 189 188 187 187 188 191 192 192 192 192 192 191 190 189 189 189 188 188 188 188 190 193 194 194 194 195 198 199 200 200 201 201 201 201 200 203 207 212 216 220 223 224 225 227 229 232 235 239 242 244 242 241 240 242 243
213 212 210 208 205 203 202 200 199 199 197 194 190 188 187 185 184 185 187 190 192 192 192 192 191 190 189 190 190 190 191 192 191 190 190 192 194 194 194 197 198 199 200 203 206 207 207 208 207 206 204 205 210 215 219 222 222 224 226 229 233 237 242 246 246 245 243 242 241
210 210 210 209 207 206 205 203 200 198 195 192 189 188 186 184 183 184 187 190 192 192 192 192 192 191 190 190 190 192 193 194 194 193 193 193 193 194 195 199 199 199 201 205 208 211 213 214 215 213 208 202 204 208 213 218 218 220 222 226 230 234 238 243 247 248 247 245 242
207 207 207 206 206 206 205 201 198 197 195 192 190 187 185 183 183 185 188 191 192 192 193 193 193 192 190 190 192 193 194 194 194 195 196 195 195 196 197 200 200 202 204 207 210 213 216 218 221 220 217 210 207 208 212 217 218 219 220 223 226 230 233 237 242 246 248 249 246
205 204 203 202 203 203 200 197 197 196 194 192 189 186 184 184 186 188 190 192 192 192 192 191 190 191 192 192 194 194 195 195 195 195 196 196 198 199 201 202 204 206 207 209 212 215 218 221 224 225 225 220 216 212 213 218 221 222 221 221 224 228 232 236 242 247 251 253 250
206 204 202 202 201 200 198 196 196 194 192 190 188 186 187 188 190 192 193 193 193 192 190 187 188 192 194 194 192 193 195 197 197 195 195 196 198 201 203 205 205 207 210 211 214 216 219 222 225 227 228 227 225 223 222 224 227 229 231 231 234 238 242 247 251 253 254 255 256
206 204 203 202 201 199 198 196 194 192 191 189 189 189 191 193 195 195 195 193 193 191 189 187 190 194 196 193 192 193 195 196 196 196 196 197 200 202 204 206 206 208 211 213 215 218 221 223 225 227 228 229 228 227 227 228 231 235 239 242 245 248 250 253 254 255 256 257 263
205 203 202 201 201 199 197 194 193 192 192 191 192 194 196 197 198 197 195 192 190 190 190 190 193 195 197 195 195 195 196 195 196 196 197 198 200 202 204 206 207 209 212 215 217 219 222 224 226 228 229 229 230 230 230 231 234 238 242 246 249 250 250 249 250 252 255 260 266
204 202 202 202 202 199 196 193 193 193 194 195 196 198 199 199 198 195 193 191 190 191 192 193 195 196 197 197 197 197 197 197 197 198 198 199 201 202 204 206 208 211 213 216 218 221 223 225 227 228 229 229 231 232 232 233 235 239 242 245 246 245 243 242 245 250 255 260 266
202 202 203 204 202 199 196 194 195 196 197 199 201 201 200 198 196 194 192 192 192 194 195 197 197 198 198 198 197 197 197 197 197 198 198 199 200 202 204 206 210 211 213 216 219 221 224 226 227 228 229 230 231 233 234 234 236 237 239 241 240 238 235 234 239 244 250 256 262
201 202 203 204 201 198 196 195 196 198 199 202 203 202 200 198 196 194 194 194 195 197 199 200 200 200 200 200 199 198 197 197 197 197 197 197 198 201 205 209 212 213 214 216 218 221 223 225 227 228 228 229 230 232 233 235 235 236 238 240 239 237 235 235 240 244 249 254 260
201 201 203 203 201 198 196 196 196 198 201 203 203 202 201 199 198 197 195 195 196 198 200 201 201 201 201 201 201 200 199 198 196 195 195 195 196 200 205 210 213 214 214 216 218 220 223 225 226 226 227 227 228 229 230 232 234 236 237 240 241 242 243 247 252 255 255 255 257
203 202 202 203 201 199 197 196 197 199 202 204 203 202 201 200 199 198 197 196 198 200 201 201 201 201 201 200 200 201 200 198 195 194 194 195 197 201 206 210 212 214 215 216 218 220 222 224 225 225 225 225 226 226 227 229 233 237 240 244 247 249 252 257 259 258 255 251 250
205 203 203 203 202 200 199 198 199 202 204 205 204 203 201 199 199 199 198 198 200 201 202 202 202 202 201 199 199 199 199 199 196 195 195 196 198 201 205 210 212 213 214 215 218 220 222 223 224 224 223 223 223 224 225 227 231 236 241 246 250 251 252 254 256 255 252 247 248
206 204 204 204 204 203 201 201 203 205 206 206 205 203 201 200 200 199 199 199 201 202 203 203 203 202 200 197 197 198 199 199 198 197 197 197 200 202 204 209 211 212 212 214 217 220 222 224 224 223 222 223 221 221 221 224 230 234 239 245 249 250 249 248 250 252 251 248 252
206 205 205 206 206 205 205 205 207 207 206 205 204 203 202 201 200 200 199 201 203 203 203 204 203 201 199 196 197 197 198 199 200 200 199 199 202 204 206 209 211 211 211 213 216 220 222 224 224 223 222 222 219 217 217 220 228 234 239 244 248 251 252 250 249 249 250 250 254
205 205 206 208 208 208 208 209 209 209 207 205 205 203 202 200 200 199 199 201 202 203 203 203 201 199 198 197 198 198 197 198 200 201 201 200 202 205 207 210 210 209 210 212 215 219 221 223 224 223 222 220 216 212 212 217 227 235 240 244 246 249 252 253 251 250 249 250 253